User: anonymous
Location: UBC Liquid-Mirror Observatory
(49.2876°N, 122.5728°W)
Time: 14:01:29
(UTC-07:00)
Language:

Cosmos 1743 Rocket - Orbit

View from above orbital plane
View from above orbital plane
View from above satellite
View from above satellite

Ground track
Ground track

The orbit data is extracted from the following two-line orbital elements,

1 16720U 86034B   14243.75576051  .00000206  00000-0  22470-4 0  5349
2 16720 082.5532 112.6165 0019675 223.1985 204.9054 14.82777763528015
Epoch (UTC): 31 August 2014 18:08:17
Eccentricity: 0.0019675
inclination: 82.5532°
perigee height: 607 km
apogee height: 634 km
right ascension of ascending node: 112.6165°
argument of perigee: 223.1985°
revolutions per day: 14.82777763
mean anomaly at epoch: 204.9054°
orbit number at epoch: 52801

The dashed part of the orbit path shows where the satellite is in the earth's shadow,  

DLR